This is the latest recevied weather packets stored in our database for station/object WA2TQI. If no packets are shown the sender has not sent any weather packets the latest 10 day(s).
| Time | Temp. | Humidity | Pressure | Rain* | Wind** | Luminosity | Snow |
|---|---|---|---|---|---|---|---|
| 1777396161 | 17.22° C | 54% | 1021.7 hPa | 0 mm | - | - | - |
| 1777395858 | 17.78° C | 55% | 1021.9 hPa | 0 mm | - | - | - |
| 1777395250 | 17.78° C | 54% | 1022.1 hPa | 0 mm | - | - | - |
| 1777394948 | 17.22° C | 55% | 1022.2 hPa | 0 mm | - | - | - |
| 1777394340 | 17.22° C | 55% | 1022.6 hPa | 0 mm | - | - | - |
| 1777394036 | 17.22° C | 54% | 1022.6 hPa | 0 mm | - | - | - |
| 1777393731 | 17.22° C | 60% | 1022.6 hPa | 0 mm | - | - | - |
| 1777392216 | 16.67° C | 56% | 1022.5 hPa | 0 mm | - | - | - |
| 1777390088 | 16.67° C | 57% | 1023 hPa | 0 mm | - | - | - |
| 1777389481 | 16.11° C | 56% | 1023.2 hPa | 0 mm | - | - | - |
| 1777388876 | 16.67° C | 58% | 1023.4 hPa | 0 mm | - | - | - |
| 1777388269 | 15.56° C | 57% | 1023.2 hPa | 0 mm | - | - | - |
| 1777387057 | 16.11° C | 57% | 1023.1 hPa | 0 mm | - | - | - |
| 1777386754 | 15.56° C | 56% | 1023.1 hPa | 0 mm | - | - | - |
| 1777386451 | 16.11° C | 56% | 1023.1 hPa | 0 mm | - | - | - |
| 1777386148 | 16.11° C | 56% | 1022.9 hPa | 0 mm | - | - | - |
| 1777385844 | 16.11° C | 56% | 1022.9 hPa | 0 mm | - | - | - |
| 1777385541 | 16.11° C | 56% | 1022.8 hPa | 0 mm | - | - | - |
| 1777385239 | 16.67° C | 56% | 1022.9 hPa | 0 mm | - | - | - |
| 1777384934 | 16.11° C | 58% | 1023 hPa | 0 mm | - | - | - |
| 1777383420 | 16.11° C | 57% | 1023.1 hPa | 0 mm | - | - | - |
| 1777383116 | 15.56° C | 58% | 1023.3 hPa | 0 mm | - | - | - |
| 1777382509 | 14.44° C | 61% | 1023.4 hPa | 0 mm | - | - | - |
| 1777382205 | 15° C | 61% | 1023.5 hPa | 0 mm | - | - | - |
| 1777381902 | 14.44° C | 65% | 1023.5 hPa | 0 mm | - | - | - |
* Rain latest hour (hover to see other rain measurements)
** Current wind speed in m/s (hover to see current wind gust speed)